Theta_e
310 310 310 310 310 310 310 310 310 309 309 309 309 309 309 309 309 302 298 299 296 291 291 293 294 290 289 290 286 286 286 289 284 284 285 286 284 286 284 288 288 290 291 288 289 290 287 310 311 306 308 317 316 313
310 310 310 310 310 310 310 310 311 310 310 310 309 310 310 309 309 306 297 302 302 295 292 295 296 297 296 294 289 287 286 286 289 286 286 287 285 288 285 283 293 289 295 292 295 296 305 309 313 315 317 318 321 316
309 309 310 310 310 310 310 310 310 310 310 310 310 310 310 310 310 307 300 299 295 293 293 291 290 296 298 297 299 290 291 293 291 296 292 289 287 289 286 287 290 296 300 298 301 306 309 313 315 315 316 318 321 325
309 309 309 309 310 310 310 310 310 310 310 311 311 310 310 310 310 309 300 299 299 294 288 288 296 292 297 297 297 297 295 294 297 297 291 288 287 293 288 291 288 295 299 297 301 307 310 314 314 314 318 318 320 321
309 309 309 309 309 309 310 310 310 310 311 311 311 311 310 310 310 308 304 302 302 294 289 289 295 295 296 295 295 296 294 293 292 291 290 289 293 292 292 292 290 298 299 297 297 308 308 310 314 315 315 315 316 318
308 308 308 309 309 309 309 310 310 310 310 311 311 311 311 310 310 300 293 300 302 302 292 286 291 293 295 298 299 295 294 293 293 291 290 293 298 293 286 286 298 304 306 308 306 312 311 313 315 317 314 316 318 319
308 308 308 309 309 309 309 309 310 310 310 310 310 310 310 310 305 296 294 301 305 302 292 288 289 296 299 298 297 293 294 293 293 293 293 293 294 295 288 286 298 304 306 309 312 312 309 312 312 316 316 316 316 317
308 308 308 309 309 309 309 309 309 309 310 310 310 311 310 309 307 302 305 306 305 298 295 286 288 292 301 295 295 300 297 297 298 297 297 294 295 295 289 300 304 307 308 312 312 314 313 314 315 316 315 316 315 314
308 308 308 308 308 308 309 309 309 309 310 310 311 309 305 303 298 300 310 307 305 298 288 287 285 287 300 297 299 299 299 292 299 294 294 295 294 292 299 301 304 309 310 310 311 313 313 312 313 314 314 314 312 312
308 308 308 308 308 308 308 308 309 309 309 309 303 300 296 299 310 309 302 296 295 295 293 285 288 286 295 297 295 297 298 293 287 290 297 292 291 299 303 306 308 311 312 312 309 308 310 312 313 313 313 314 314 312
307 307 307 308 308 308 308 308 309 309 306 299 294 295 299 308 305 301 293 292 291 285 286 288 289 288 298 292 294 298 293 291 285 293 291 288 288 299 305 308 310 312 313 313 313 312 311 311 311 312 313 314 314 314
307 307 307 307 308 308 308 308 309 304 299 300 302 304 299 301 296 292 291 293 291 289 296 292 296 295 299 301 297 298 292 293 287 298 289 285 292 302 304 308 310 311 312 313 315 314 315 314 313 312 314 314 315 315
307 307 307 307 307 308 308 309 309 309 306 301 298 299 295 295 292 288 287 292 295 299 300 300 299 302 303 302 299 298 293 291 298 288 284 291 302 305 307 309 311 313 314 314 314 315 315 314 315 313 311 311 314 315
307 307 307 307 307 308 309 309 309 306 301 298 294 290 291 291 296 296 297 298 302 301 300 300 299 297 301 298 299 294 294 294 288 285 288 299 303 305 307 309 310 310 311 312 312 312 312 311 310 311 311 310 312 314
307 307 307 306 309 309 309 308 309 303 301 296 296 289 294 298 299 300 301 301 303 304 300 299 299 299 295 294 296 294 291 286 288 288 298 302 304 305 306 306 306 305 305 306 307 308 307 307 307 308 310 311 312 313
308 306 305 308 309 308 308 307 307 305 302 302 301 297 299 296 297 298 298 298 304 304 301 300 297 296 294 295 292 290 288 287 294 299 302 304 304 305 305 305 302 302 301 301 300 301 301 302 304 306 308 308 308 309
307 300 307 308 308 308 307 305 304 303 302 302 299 299 297 296 295 296 298 298 302 302 297 298 294 293 298 292 292 296 293 297 301 302 304 304 303 304 306 304 302 301 299 299 299 299 299 300 301 301 301 304 304 305
299 302 307 307 307 304 304 305 302 301 300 298 296 298 297 298 298 298 299 300 297 296 298 296 298 292 289 289 292 297 299 301 303 303 304 304 305 306 305 303 301 299 298 297 298 299 298 298 298 299 299 300 301 302
303 304 307 308 306 302 302 302 302 298 297 298 299 299 298 298 301 301 301 301 300 297 294 292 292 290 290 293 292 294 296 298 299 301 300 300 302 302 301 299 298 297 297 296 295 295 297 296 294 297 299 300 299 299
307 309 310 310 307 302 299 298 302 298 296 297 298 298 297 297 297 300 300 300 297 294 291 291 292 295 293 290 292 294 293 294 292 293 294 295 297 296 295 295 295 295 296 296 297 296 296 296 296 296 297 296 296 295
306 309 310 307 306 304 299 296 296 297 297 296 297 297 297 298 296 297 297 299 296 294 292 293 295 295 295 293 290 291 292 291 288 289 289 291 293 294 294 294 295 295 294 294 294 294 295 293 294 296 297 296 295 295
304 310 306 309 305 303 300 300 298 298 299 300 299 299 296 295 294 295 295 293 293 297 298 295 294 292 290 290 290 289 289 291 292 294 294 293 290 290 291 292 293 292 293 293 292 290 291 292 293 294 294 294 296 296
307 307 305 306 301 295 296 302 299 298 297 296 302 299 298 298 298 298 291 293 295 297 298 297 295 293 289 290 291 290 289 289 289 289 290 289 289 288 289 291 292 291 290 290 291 290 289 291 291 291 291 292 293 294
308 303 301 300 300 296 303 299 300 298 298 296 294 294 298 298 298 292 289 290 293 294 293 292 293 289 288 288 286 286 287 287 287 287 287 287 286 286 286 286 287 288 288 288 288 288 288 288 290 290 291 291 289 288
295 296 298 290 298 297 298 297 297 296 295 296 295 293 295 296 292 293 293 291 293 294 293 292 290 288 286 285 285 285 286 285 284 285 285 285 285 286 285 285 285 286 287 287 286 287 286 287 289 289 289 288 288 288
292 301 296 299 296 295 295 295 296 295 294 295 297 299 296 296 291 287 289 293 299 300 298 296 291 287 285 285 284 283 284 284 284 284 284 284 284 284 283 283 282 285 287 286 286 287 287 288 288 287 287 287 289 288
292 296 299 303 300 298 296 296 297 294 292 292 294 296 292 288 288 291 294 297 301 302 298 294 290 288 286 284 285 285 284 283 284 284 284 284 284 284 284 283 283 284 286 288 287 288 287 287 286 286 285 285 286 287
300 301 298 299 300 301 295 294 293 292 292 294 294 291 291 291 290 294 296 298 299 296 289 288 287 288 287 286 285 284 284 283 284 284 283 284 284 284 284 285 285 290 287 288 287 287 287 287 286 286 285 284 284 285
301 301 299 298 300 298 297 295 294 294 295 295 293 291 292 295 297 297 298 298 295 291 288 287 286 286 286 285 284 283 283 283 282 281 280 279 281 283 284 285 285 285 285 285 289 289 288 287 286 286 285 284 284 284
303 301 299 301 298 296 298 297 296 297 296 296 296 295 296 296 298 300 299 294 290 289 288 287 286 285 284 283 282 282 283 283 282 282 280 280 281 282 283 284 284 284 284 285 285 285 289 286 286 286 286 284 284 284
303 302 302 301 299 300 301 300 299 300 299 297 297 295 295 296 298 300 298 291 289 289 288 287 286 285 285 284 283 282 281 284 283 284 283 283 283 283 284 284 284 284 285 285 285 285 284 284 284 284 285 285 286 286
302 301 299 298 298 300 301 299 299 298 297 296 296 298 298 298 295 296 292 290 289 288 290 288 287 286 287 286 287 286 288 285 285 285 285 284 284 284 284 283 284 286 286 286 286 285 286 285 285 285 285 285 285 286
299 299 299 300 299 298 300 301 300 299 298 297 297 299 299 298 293 293 293 291 290 289 289 288 288 288 288 288 287 286 287 286 287 288 288 288 287 286 284 283 284 286 285 286 286 286 286 286 286 286 285 286 285 285
Wind_Speed
15 16 17 17 18 19 19 19 19 18 18 17 17 17 16 15 12 1 4 5 4 4 10 10 13 12 6 5 5 3 6 2 2 2 3 3 4 5 5 7 3 9 10 10 10 9 11 10 10 9 12 22 14 8
16 17 17 19 19 20 21 20 21 19 19 19 19 18 17 16 13 5 3 2 3 4 9 5 12 14 18 18 6 4 5 2 3 2 2 3 2 5 3 6 4 11 7 11 8 8 3 1 4 13 16 16 15 11
17 18 18 20 21 22 23 23 23 23 23 22 22 21 19 17 15 10 3 2 1 4 9 5 10 13 12 19 15 8 6 8 5 4 3 4 8 3 4 5 12 9 5 6 7 4 4 6 11 14 18 8 10 11
17 19 19 20 22 23 24 25 25 25 25 24 23 22 21 18 15 12 4 4 3 2 5 7 3 5 9 11 16 22 15 3 0 3 3 4 4 5 4 6 14 13 7 11 6 3 4 9 12 17 15 8 14 17
17 18 19 21 22 24 26 26 27 25 26 25 24 23 20 18 15 8 5 6 8 5 4 7 14 7 4 9 15 17 18 15 7 4 5 4 4 5 3 6 9 8 11 12 6 5 5 8 10 17 9 9 11 16
19 19 20 22 23 24 26 27 28 26 28 27 24 21 19 16 10 1 4 1 6 5 2 5 5 5 3 7 10 11 15 9 7 4 4 5 5 5 4 4 10 11 4 6 6 4 13 9 4 9 4 11 12 17
20 20 21 24 25 27 28 29 29 27 29 28 24 20 17 12 4 4 4 3 9 3 2 4 5 4 5 4 1 3 8 4 5 3 5 5 5 6 4 6 14 12 5 4 8 12 12 5 7 11 11 10 12 15
21 22 23 25 26 27 29 30 30 29 29 28 26 18 12 8 5 4 5 11 4 2 2 3 4 5 4 4 3 1 4 3 3 3 2 3 3 5 6 4 13 12 7 11 8 11 11 5 6 8 4 9 13 11
22 22 23 25 28 27 29 31 30 30 30 29 19 6 4 2 1 2 8 6 4 2 2 2 2 3 5 3 2 3 2 2 2 3 2 3 4 4 10 9 12 4 14 12 14 14 6 8 4 6 9 11 10 8
22 23 24 25 27 27 29 29 30 28 29 18 2 3 3 2 3 7 3 2 2 1 1 3 2 4 3 2 2 1 1 2 2 3 3 2 4 12 13 13 9 3 20 18 17 10 10 10 10 4 8 7 6 7
21 22 24 25 26 28 29 27 26 25 10 5 5 3 4 7 2 1 2 2 2 3 3 4 6 3 5 3 1 1 1 0 3 2 4 5 5 11 13 11 16 15 18 16 12 8 7 8 10 12 11 7 7 9
21 22 23 24 25 27 28 26 21 7 2 3 6 5 3 3 2 4 4 2 1 4 3 4 4 5 3 3 0 1 2 2 3 3 3 6 5 8 15 14 14 14 17 18 19 15 14 12 8 8 9 9 7 6
22 22 23 23 25 27 26 24 19 16 8 0 1 3 4 4 5 6 7 4 6 3 4 4 3 1 1 1 1 3 6 5 3 4 5 4 16 11 14 10 10 10 14 16 15 14 11 9 8 9 9 6 6 8
22 22 22 23 24 22 22 24 21 6 2 4 5 9 6 6 7 5 12 9 8 4 9 2 1 3 3 4 3 4 4 4 5 7 7 8 12 13 10 8 14 16 13 13 12 11 9 8 8 10 9 8 10 12
21 22 23 19 10 22 24 22 9 2 3 5 6 8 6 5 6 10 6 5 13 11 2 2 4 4 5 5 5 5 6 6 5 5 6 9 12 12 11 13 14 15 15 14 14 13 12 11 12 12 11 11 11 9
20 18 4 10 21 25 24 7 2 2 3 5 8 6 8 6 13 16 14 12 13 13 3 4 6 5 8 5 7 8 5 7 6 5 7 9 13 14 12 13 13 15 16 15 14 14 14 14 12 11 14 13 12 11
13 3 12 20 24 24 10 2 4 6 6 7 4 3 3 4 5 6 10 10 8 9 8 5 8 8 4 6 7 5 5 5 4 6 6 8 11 11 11 12 13 14 14 14 14 14 13 13 16 15 14 11 12 12
3 6 18 21 16 7 4 4 4 6 6 3 4 6 5 2 7 7 9 11 7 6 5 6 5 9 7 8 6 6 6 7 6 7 8 12 11 10 9 10 11 12 13 12 13 14 14 15 13 8 10 9 10 11
8 13 22 21 5 3 4 6 5 5 3 2 4 4 4 3 7 7 9 10 10 5 4 5 8 5 4 3 6 8 9 8 4 5 8 11 11 9 10 11 13 13 14 12 11 8 8 10 6 6 7 8 8 8
15 13 11 7 4 3 5 5 3 5 2 2 2 5 4 4 5 8 9 10 5 4 9 7 4 3 2 4 3 2 4 5 5 8 8 10 8 14 13 10 8 9 10 11 12 15 10 10 9 7 8 9 9 9
8 5 5 1 2 4 3 1 3 2 3 2 2 2 1 3 4 6 8 7 7 7 5 3 2 2 4 4 3 4 8 8 6 4 2 4 7 8 9 9 10 10 10 9 9 10 12 7 6 6 7 8 6 6
4 8 3 3 3 4 2 1 4 1 3 2 2 3 3 3 3 3 2 6 4 3 2 2 3 3 5 8 6 6 5 9 11 9 11 8 9 9 8 7 7 8 8 7 6 7 6 6 5 6 6 5 8 8
7 3 3 3 2 5 4 1 3 1 3 3 3 2 3 3 2 2 4 3 3 3 3 2 2 4 5 5 8 8 7 9 8 6 6 6 6 6 7 9 8 8 7 6 4 5 5 6 7 7 6 7 6 7
3 3 3 3 2 3 3 3 1 2 2 3 2 2 1 2 4 4 2 3 4 3 5 5 3 4 4 7 5 5 5 4 5 6 6 5 5 6 5 5 5 5 4 4 5 5 6 6 7 7 7 8 8 8
3 5 4 5 2 4 4 6 5 4 1 2 3 1 0 2 2 1 1 3 3 3 2 4 4 3 4 1 2 4 6 4 4 6 6 4 4 5 5 5 5 4 4 4 4 5 5 5 6 7 8 6 8 9
4 2 3 1 1 2 1 3 3 3 2 3 4 2 1 2 2 2 2 3 2 2 2 2 4 3 3 1 2 3 4 4 1 5 4 4 3 2 3 4 5 6 5 2 3 5 6 5 5 7 7 7 7 6
2 2 2 1 3 3 1 2 1 4 4 3 3 2 2 2 1 3 3 3 1 3 1 3 5 5 5 3 1 1 2 3 3 3 1 2 3 3 3 3 5 5 5 4 4 4 5 5 5 5 5 5 4 4
3 3 2 2 1 2 1 2 2 0 1 1 3 2 3 4 4 4 5 2 2 2 3 3 3 4 5 3 3 2 3 3 4 4 3 4 4 4 5 3 3 10 6 5 4 5 5 4 4 4 5 4 4 3
2 2 2 2 0 0 2 4 4 3 3 3 4 3 3 3 3 2 2 2 2 5 5 4 3 4 4 4 3 2 2 3 4 5 5 3 4 5 5 5 5 5 4 4 6 5 6 5 4 4 4 3 2 3
4 4 3 2 3 4 4 5 4 3 2 4 4 2 2 3 3 2 1 2 3 4 4 4 4 4 5 4 3 1 2 1 1 3 3 1 2 4 4 5 5 5 4 4 5 5 8 6 6 5 5 5 4 4
4 3 2 3 4 4 5 3 2 3 2 2 2 3 4 3 3 2 2 3 3 4 5 4 3 3 5 5 4 4 2 3 2 3 3 2 0 2 3 4 4 5 5 5 5 5 5 4 4 4 5 5 6 5
4 7 5 4 3 1 3 3 5 4 4 3 3 2 0 1 2 3 0 4 4 3 3 5 5 4 4 3 4 4 6 4 4 3 3 1 1 2 3 3 4 5 5 5 5 4 5 5 4 5 4 6 6 7
1 2 3 3 3 2 3 4 4 3 2 4 4 5 5 5 5 4 1 1 4 5 6 5 4 4 4 3 4 4 5 5 7 7 7 5 4 2 2 2 3 5 6 5 5 4 6 6 5 6 6 6 6 7
Wind_Direction
328 324 323 324 323 318 313 312 311 312 312 313 313 314 314 318 317 97 249 193 188 247 264 235 238 251 238 220 234 305 339 359 24 240 240 269 236 236 258 250 250 183 165 181 217 213 253 4 359 358 311 302 275 149
327 325 326 323 318 313 309 308 303 301 300 302 307 305 302 303 298 306 249 226 170 238 265 252 246 240 234 226 232 216 228 338 239 201 239 285 296 272 300 279 272 236 191 169 214 221 208 315 323 304 301 284 294 118
324 320 322 319 316 313 311 305 303 304 301 299 299 302 298 290 291 268 223 212 207 266 274 257 236 247 231 230 217 234 238 222 223 199 204 223 250 286 264 266 269 273 185 206 178 234 265 29 352 332 318 331 329 45
321 318 319 316 314 312 308 307 309 306 301 298 293 293 292 292 281 275 212 180 207 271 279 279 302 247 213 198 203 213 228 247 257 143 206 226 239 216 243 291 278 265 231 213 210 229 278 41 2 327 308 6 48 51
317 316 317 314 312 310 308 309 307 307 305 298 292 290 289 284 280 270 224 211 203 202 275 299 302 268 238 188 208 206 212 223 241 243 221 231 222 238 233 250 243 235 239 208 221 193 104 62 331 304 283 54 53 61
314 315 317 314 313 312 311 311 309 313 306 302 300 298 290 285 291 71 315 89 173 179 275 292 285 289 301 213 233 203 201 198 205 204 227 220 182 195 250 239 279 278 282 253 188 161 109 104 309 289 173 77 65 71
312 313 315 312 313 313 314 311 313 316 309 310 308 296 281 268 195 169 206 171 144 125 223 281 280 276 294 291 179 128 172 187 187 221 237 236 227 215 222 237 235 260 295 279 144 117 73 143 193 246 91 85 78 73
309 311 313 310 310 314 313 312 317 317 315 315 312 306 271 229 219 243 231 211 152 137 181 265 275 288 3 304 6 142 134 169 212 251 261 259 265 218 242 247 287 271 251 153 164 87 103 148 15 308 47 89 80 73
306 308 309 309 309 314 313 313 318 318 319 317 324 109 89 85 202 231 120 112 137 169 210 240 259 284 341 275 328 1 77 262 192 244 255 259 262 250 292 299 298 234 147 145 109 86 127 104 119 349 48 32 57 66
305 308 309 308 309 313 313 316 318 321 318 319 26 21 329 193 239 134 183 108 118 161 193 252 212 257 283 259 252 251 317 324 280 253 275 303 275 282 327 329 304 100 116 127 117 128 140 137 115 91 61 57 45 43
306 308 307 308 312 313 313 317 317 326 330 18 4 325 288 325 320 318 346 354 117 267 210 229 208 231 200 241 181 202 107 313 319 327 2 326 313 342 323 20 33 69 74 70 76 82 62 59 53 55 48 42 38 37
308 308 307 309 313 311 311 312 320 331 286 303 291 297 310 344 337 342 323 295 239 278 200 220 214 201 218 212 34 179 167 226 1 6 9 338 285 327 355 18 24 41 56 64 65 65 66 73 70 72 66 52 47 60
310 309 308 311 311 310 308 309 319 301 304 154 313 316 26 337 359 7 331 324 332 287 276 320 334 57 149 160 195 14 23 21 341 20 5 320 8 15 29 47 41 49 58 65 71 79 68 54 48 58 55 36 83 78
311 311 310 310 309 305 316 321 326 328 67 47 13 352 44 345 360 328 321 317 310 272 313 316 321 45 345 48 7 32 15 15 23 13 20 11 5 358 22 33 66 70 65 68 75 82 91 82 53 58 63 55 62 56
315 314 312 301 299 328 328 329 338 53 55 35 42 13 356 309 297 319 299 325 354 337 4 1 27 57 10 46 20 13 28 19 15 354 13 10 11 21 17 28 46 53 54 52 49 47 39 36 43 42 32 49 63 70
323 322 298 298 325 329 326 331 2 45 40 50 38 0 329 354 355 359 354 360 360 347 4 34 26 26 38 25 7 25 23 22 9 350 339 352 12 13 22 40 49 56 58 58 51 50 47 47 49 51 47 45 46 51
330 251 297 326 332 326 328 30 19 39 44 32 351 327 296 275 313 328 3 352 335 5 9 38 35 16 356 18 17 6 30 8 332 324 331 347 1 3 27 41 44 52 51 50 51 45 46 45 47 41 36 27 45 44
241 283 309 319 340 328 329 27 51 63 47 357 38 323 325 292 356 8 355 5 10 360 1 40 41 29 28 1 18 357 1 349 335 350 358 357 358 14 38 48 42 46 46 40 49 47 43 44 46 34 35 27 41 30
270 292 300 304 317 21 18 356 53 83 43 0 335 325 349 310 3 1 14 13 20 18 47 38 52 19 359 344 349 355 358 3 334 335 18 12 25 33 43 44 46 45 48 38 36 37 45 43 41 31 33 36 45 29
294 285 290 308 147 38 29 355 47 73 58 281 7 344 2 2 314 23 26 18 15 19 32 41 38 345 337 295 286 296 326 317 6 27 17 18 23 48 41 40 35 36 46 40 42 38 40 36 25 24 38 42 48 35
333 317 355 130 47 72 123 93 37 154 163 115 275 25 342 359 19 23 27 355 34 40 31 4 354 341 335 329 349 15 19 16 18 24 301 23 14 35 39 34 38 43 46 38 41 34 35 27 8 19 39 41 37 51
282 339 344 345 46 358 60 229 147 186 103 158 42 6 23 4 340 353 336 29 30 352 13 320 319 336 37 30 9 12 340 28 28 38 41 34 35 30 29 21 40 47 41 40 41 46 39 17 3 19 31 31 49 53
322 13 342 4 8 31 264 55 69 65 121 133 113 261 352 3 326 2 48 346 299 305 299 330 352 29 49 16 30 17 9 41 38 26 19 26 34 25 31 31 29 37 43 32 33 37 28 9 16 25 20 40 58 60
355 18 28 31 45 306 327 1 55 71 101 93 140 157 79 341 351 58 70 290 272 317 2 21 103 59 18 31 26 350 347 7 50 36 13 28 39 11 8 10 8 10 7 355 17 18 17 17 15 34 41 59 60 64
46 333 82 343 355 26 18 351 349 23 353 150 103 96 303 23 59 70 348 278 313 317 18 4 53 82 109 81 356 356 356 38 61 52 356 20 36 19 10 3 9 10 354 54 29 34 19 26 44 47 48 51 53 48
76 316 70 48 327 67 316 346 330 314 344 27 66 121 104 76 58 300 257 255 279 299 308 139 174 114 59 103 106 27 333 328 61 71 352 2 23 54 22 26 4 345 359 344 32 53 61 63 62 56 49 43 52 66
74 297 303 250 127 134 344 284 288 55 41 35 351 51 89 60 322 262 280 272 328 290 263 155 151 142 153 159 167 38 26 33 105 157 217 30 42 42 63 49 18 297 314 20 46 74 88 77 69 66 62 40 38 59
202 167 180 275 294 183 113 67 66 65 285 259 70 72 177 192 229 235 224 241 174 111 80 73 80 130 136 141 136 103 30 11 34 30 26 23 21 21 9 360 352 7 8 11 68 73 79 90 94 77 59 48 24 19
232 193 115 336 30 242 186 157 195 222 187 119 135 190 228 228 226 220 270 320 12 131 113 104 53 83 79 71 68 60 59 56 69 55 43 8 358 335 340 350 354 356 350 360 15 54 67 68 68 70 57 43 23 35
242 152 142 225 179 228 237 164 179 172 133 147 140 56 352 291 252 216 115 86 130 182 182 150 153 148 149 145 153 25 340 18 95 133 129 322 271 284 333 356 342 337 349 33 26 28 35 38 30 32 36 31 27 18
126 138 163 194 225 213 190 149 71 86 111 131 135 149 209 240 315 336 142 143 126 121 118 115 104 143 149 175 182 172 235 275 231 164 159 171 246 4 5 355 344 356 27 52 46 54 61 49 40 40 37 31 12 8
161 186 176 205 256 9 101 129 165 183 190 153 192 147 195 115 239 287 239 109 112 139 167 149 146 192 202 204 200 210 200 172 194 215 192 198 317 347 5 21 10 13 28 36 36 39 46 46 32 24 13 2 354 349
229 170 154 122 115 183 216 142 197 214 176 188 192 184 191 170 203 230 309 143 166 171 174 186 179 160 172 178 215 191 175 183 201 211 237 233 206 235 329 9 27 33 27 25 28 29 23 18 12 2 355 355 346 337